Murray, KY

8:19 AM CST on December 13, 2019 (GMT -0600)
Kyle-Oakley

Weather History for KCEY - October, 2019

Change the Weather History Date:

Sunday, October 27, 2019

  Actual Average (KPAH) Record (KPAH)
Temperature  
Mean Temperature 57 °F -  
Max Temperature 66 °F 67 °F 88 °F (1940)
Min Temperature 48 °F 43 °F 28 °F (1957)
Degree Days  
Heating Degree Days 8    
Growing Degree Days 7 (Base 50)    
Moisture  
Dew Point 52 °F    
Average Humidity 88    
Maximum Humidity 100    
Minimum Humidity 52    
Precipitation  
Precipitation 0.00 in - - ()
Sea Level Pressure  
Sea Level Pressure 30.00 in    
Wind  
Wind Speed 6 mph (SW)    
Max Wind Speed 15 mph    
Max Gust Speed 18 mph    
Visibility 10 miles    
Events      
Averages and records for this station are not official NWS values.
T = Trace of Precipitation, MM = Missing Value Source: NWS Daily Summary

Daily Weather History Graph

Daily Weather History Graph

Search for Another Location

Airport or City:

Astronomy

Oct. 27, 2019 Rise Set
Actual Time 7:11 AM CDT 6:02 PM CDT
Civil Twilight 6:45 AM CDT 6:28 PM CDT
Nautical Twilight 6:15 AM CDT 6:59 PM CDT
Astronomical Twilight 5:44 AM CDT 7:29 PM CDT
Moon 6:23 AM CDT (10/27) 6:09 PM CDT (10/27)
Length of Visible Light 11h 43m
Length of Day
10h 50m
Waning Crescent, 0% of the Moon is Illuminated
Oct 27
Waning Crescent
Oct 27
New
Nov 4
First Quarter
Nov 12
Full
Nov 19
Last Quarter

Hourly Weather History & Observations

Time (CDT) Temp. Dew Point Humidity Pressure Visibility Wind Dir Wind Speed Gust Speed Precip Events Conditions
12:15 AM 53.6 °F 53.6 °F 100% 29.84 in 10.0 mi SW 10.4 mph - N/A   Overcast
12:35 AM 53.6 °F 53.6 °F 100% 29.84 in 10.0 mi SW 15.0 mph 18.4 mph N/A   Overcast
12:55 AM 53.6 °F 53.6 °F 100% 29.85 in 10.0 mi SW 11.5 mph - N/A   Overcast
1:15 AM 53.6 °F 53.6 °F 100% 29.86 in 10.0 mi SW 10.4 mph - N/A   Overcast
1:35 AM 53.6 °F 53.6 °F 100% 29.86 in 10.0 mi SW 9.2 mph - N/A   Overcast
1:55 AM 53.6 °F 53.6 °F 100% 29.87 in 10.0 mi SW 9.2 mph - N/A   Overcast
2:15 AM 53.6 °F 53.6 °F 100% 29.87 in 10.0 mi WSW 9.2 mph - N/A   Overcast
2:55 AM 53.6 °F 53.6 °F 100% 29.88 in 10.0 mi WSW 10.4 mph - N/A   Overcast
3:15 AM 53.6 °F 53.6 °F 100% 29.89 in 10.0 mi West 8.1 mph - N/A   Overcast
3:35 AM 53.6 °F 53.6 °F 100% 29.90 in 10.0 mi WSW 8.1 mph - N/A   Overcast
3:55 AM 53.6 °F 53.6 °F 100% 29.90 in 10.0 mi WSW 6.9 mph - N/A   Overcast
4:15 AM 53.6 °F 53.6 °F 100% 29.90 in 10.0 mi WSW 5.8 mph - N/A   Overcast
4:35 AM 53.6 °F 53.6 °F 100% 29.91 in 10.0 mi WSW 4.6 mph - N/A   Overcast
4:55 AM 51.8 °F 51.8 °F 100% 29.92 in 10.0 mi West 4.6 mph - N/A   Overcast
5:15 AM 51.8 °F 51.8 °F 100% 29.93 in 10.0 mi West 3.5 mph - N/A   Overcast
5:35 AM 51.8 °F 51.8 °F 100% 29.95 in 10.0 mi West 4.6 mph - N/A   Overcast
5:55 AM 50.0 °F 50.0 °F 100% 29.96 in 10.0 mi West 4.6 mph - N/A   Unknown
6:15 AM 50.0 °F 50.0 °F 100% 29.96 in 10.0 mi WSW 3.5 mph - N/A   Unknown
6:35 AM 48.2 °F 48.2 °F 100% 29.96 in 10.0 mi WSW 4.6 mph - N/A   Clear
6:55 AM 48.2 °F 48.2 °F 100% 29.98 in 10.0 mi WSW 4.6 mph - N/A   Clear
7:15 AM 48.2 °F 48.2 °F 100% 29.98 in 10.0 mi WSW 4.6 mph - N/A   Clear
7:35 AM 48.2 °F 48.2 °F 100% 29.99 in 10.0 mi Calm Calm - N/A   Clear
7:55 AM 48.2 °F 48.2 °F 100% 30.00 in 8.0 mi WSW 3.5 mph - N/A   Clear
8:15 AM 50.0 °F 50.0 °F 100% 30.01 in 10.0 mi West 3.5 mph - N/A   Scattered Clouds
8:35 AM 48.2 °F 48.2 °F 100% 30.02 in 10.0 mi NNW 3.5 mph - N/A   Overcast
8:55 AM 50.0 °F 50.0 °F 100% 30.03 in 10.0 mi Calm Calm - N/A   Overcast
9:15 AM 50.0 °F 50.0 °F 100% 30.03 in 10.0 mi Calm Calm - N/A   Overcast
9:35 AM 50.0 °F 50.0 °F 100% 30.04 in 10.0 mi Calm Calm - N/A   Overcast
9:55 AM 50.0 °F 50.0 °F 100% 30.04 in 10.0 mi Calm Calm - N/A   Overcast
10:15 AM 51.8 °F 51.8 °F 100% 30.05 in 10.0 mi Calm Calm - N/A   Overcast
10:35 AM 55.4 °F 53.6 °F 94% 30.05 in 10.0 mi Calm Calm - N/A   Overcast
11:15 AM 55.4 °F 53.6 °F 94% 30.05 in 10.0 mi Calm Calm - N/A   Mostly Cloudy
11:35 AM 57.2 °F 53.6 °F 88% 30.05 in 10.0 mi Calm Calm - N/A   Partly Cloudy
11:55 AM 60.8 °F 51.8 °F 72% 30.05 in 10.0 mi Calm Calm - N/A   Clear
12:15 PM 62.6 °F 51.8 °F 68% 30.05 in 10.0 mi Calm Calm - N/A   Clear
12:35 PM 62.6 °F 50.0 °F 63% 30.04 in 10.0 mi Calm Calm - N/A   Clear
12:55 PM 64.4 °F 50.0 °F 59% 30.04 in 10.0 mi Calm Calm - N/A   Partly Cloudy
1:15 PM 64.4 °F 48.2 °F 56% 30.04 in 10.0 mi North 3.5 mph - N/A   Clear
1:35 PM 66.2 °F 48.2 °F 52% 30.03 in 10.0 mi NNE 3.5 mph - N/A   Partly Cloudy
1:55 PM 64.4 °F 50.0 °F 59% 30.03 in 10.0 mi SSE 5.8 mph - N/A   Clear
2:15 PM 64.4 °F 50.0 °F 59% 30.03 in 10.0 mi East 3.5 mph - N/A   Clear
2:35 PM 64.4 °F 50.0 °F 59% 30.02 in 10.0 mi South 6.9 mph - N/A   Clear
2:55 PM 66.2 °F 50.0 °F 56% 30.02 in 10.0 mi Calm Calm - N/A   Clear
3:15 PM 66.2 °F 50.0 °F 56% 30.02 in 10.0 mi ESE 5.8 mph - N/A   Clear
3:35 PM 64.4 °F 50.0 °F 59% 30.02 in 10.0 mi Calm Calm - N/A   Clear
3:55 PM 66.2 °F 50.0 °F 56% 30.02 in 10.0 mi Calm Calm - N/A   Clear
4:15 PM 66.2 °F 50.0 °F 56% 30.02 in 10.0 mi South 4.6 mph - N/A   Clear
4:35 PM 66.2 °F 50.0 °F 56% 30.02 in 10.0 mi South 4.6 mph - N/A   Clear
4:55 PM 64.4 °F 50.0 °F 59% 30.02 in 10.0 mi South 4.6 mph - N/A   Clear
5:15 PM 64.4 °F 50.0 °F 59% 30.02 in 10.0 mi SSE 4.6 mph - N/A   Clear
5:35 PM 62.6 °F 51.8 °F 68% 30.02 in 10.0 mi SSE 5.8 mph - N/A   Clear
5:55 PM 60.8 °F 51.8 °F 72% 30.03 in 10.0 mi SSE 8.1 mph - N/A   Clear
6:15 PM 59.0 °F 53.6 °F 82% 30.03 in 10.0 mi SSE 6.9 mph - N/A   Clear
6:35 PM 57.2 °F 55.4 °F 94% 30.04 in 10.0 mi South 6.9 mph - N/A   Clear
6:55 PM 57.2 °F 55.4 °F 94% 30.04 in 10.0 mi South 4.6 mph - N/A   Clear
7:15 PM 55.4 °F 55.4 °F 100% 30.05 in 10.0 mi South 5.8 mph - N/A   Clear
7:35 PM 55.4 °F 55.4 °F 100% 30.06 in 10.0 mi South 4.6 mph - N/A   Clear
7:55 PM 53.6 °F 53.6 °F 100% 30.06 in 10.0 mi South 3.5 mph - N/A   Clear
8:15 PM 53.6 °F 53.6 °F 100% 30.06 in 10.0 mi South 4.6 mph - N/A   Clear
8:35 PM 53.6 °F 53.6 °F 100% 30.06 in 10.0 mi South 4.6 mph - N/A   Unknown
9:15 PM 51.8 °F 51.8 °F 100% 30.08 in 10.0 mi South 3.5 mph - N/A   Clear
9:35 PM 51.8 °F 51.8 °F 100% 30.08 in 10.0 mi Calm Calm - N/A   Partly Cloudy
9:55 PM 51.8 °F 51.8 °F 100% 30.09 in 10.0 mi Calm Calm - N/A   Mostly Cloudy
10:15 PM 53.6 °F 53.6 °F 100% 30.09 in 10.0 mi SW 3.5 mph - N/A   Overcast
10:35 PM 53.6 °F 53.6 °F 100% 30.08 in 10.0 mi SSW 5.8 mph - N/A   Overcast
10:55 PM 53.6 °F 53.6 °F 100% 30.08 in 10.0 mi SSW 4.6 mph - N/A   Unknown
11:15 PM 53.6 °F 53.6 °F 100% 30.08 in 10.0 mi Calm Calm - N/A   Overcast
11:35 PM 55.4 °F 55.4 °F 100% 30.08 in 10.0 mi SSW 4.6 mph - N/A   Overcast
11:55 PM 55.4 °F 55.4 °F 100% 30.07 in 10.0 mi SSW 5.8 mph - N/A   Overcast